UAE9657 OMDW-FWKI

Flight info

Callsign UAE9657
Flight time N/A
Altitude 32000
Route ANVIX R401 GIDIS G783 UKRAG/N0494F310 L710 KUKDI/N0493F320 B400 VEDET UL437 MOGDU/N0492F340 UL437 DVL
Aircraft B77L/H-SDE1E2E3FGHIJ2J3J4J5M1RWXY/LB1D1

Departure

Time N/A
Airport Al Maktoum International Airport (OMDW)

Arrival

Time 2026-04-17 01:43
Airport Kamuzu International Airport (FWKI)
Time Latitude Longitude Altitude Speed Heading
2026-04-17 00:42 -8.20361 38.19155 33921 ft 484 kts 218°
2026-04-17 00:42 -8.23044 38.17104 33925 ft 484 kts 218°
2026-04-17 00:43 -8.28408 38.13007 33924 ft 483 kts 218°
2026-04-17 00:43 -8.33765 38.08914 33930 ft 482 kts 218°
2026-04-17 00:44 -8.39108 38.04828 33943 ft 481 kts 219°
2026-04-17 00:44 -8.44438 38.00750 33928 ft 480 kts 219°
2026-04-17 00:45 -8.49751 37.96684 33944 ft 479 kts 219°
2026-04-17 00:45 -8.55053 37.92624 33945 ft 478 kts 219°
2026-04-17 00:46 -8.60341 37.88574 33938 ft 477 kts 219°
2026-04-17 00:46 -8.65621 37.84529 33950 ft 476 kts 219°
2026-04-17 00:47 -8.70899 37.80483 33942 ft 476 kts 219°
2026-04-17 00:47 -8.76180 37.76433 33954 ft 477 kts 219°
2026-04-17 00:48 -8.81476 37.72371 33946 ft 478 kts 219°
2026-04-17 00:48 -8.86779 37.68301 33946 ft 479 kts 219°
2026-04-17 00:49 -8.92065 37.64244 33948 ft 481 kts 219°
2026-04-17 00:49 -8.97398 37.60149 33945 ft 482 kts 219°
2026-04-17 00:50 -9.02742 37.56044 33953 ft 482 kts 219°
2026-04-17 00:50 -9.08088 37.51936 33942 ft 483 kts 219°
2026-04-17 00:51 -9.12568 37.48492 33944 ft 482 kts 219°
2026-04-17 00:51 -9.17904 37.44389 33949 ft 481 kts 219°
2026-04-17 00:52 -9.23235 37.40288 33934 ft 481 kts 219°
2026-04-17 00:52 -9.28515 37.36224 33947 ft 480 kts 219°
2026-04-17 00:53 -9.33826 37.32135 33948 ft 479 kts 219°
2026-04-17 00:53 -9.39170 37.28019 33947 ft 479 kts 219°
2026-04-17 00:54 -9.44437 37.23961 33947 ft 479 kts 219°
2026-04-17 00:54 -9.49734 37.19878 33949 ft 478 kts 219°
2026-04-17 00:55 -9.55029 37.15794 33950 ft 479 kts 219°
2026-04-17 00:55 -9.60328 37.11707 33949 ft 479 kts 219°
2026-04-17 00:56 -9.65626 37.07618 33949 ft 478 kts 219°
2026-04-17 00:56 -9.70915 37.03535 33953 ft 478 kts 219°
2026-04-17 00:57 -9.76197 36.99455 33947 ft 477 kts 219°
2026-04-17 00:57 -9.81465 36.95385 33956 ft 476 kts 220°
2026-04-17 00:58 -9.86727 36.91316 33955 ft 475 kts 220°
2026-04-17 00:58 -9.91978 36.87256 33955 ft 474 kts 220°
2026-04-17 00:59 -9.97225 36.83197 33962 ft 474 kts 220°
2026-04-17 00:59 -10.02472 36.79135 33965 ft 474 kts 220°
2026-04-17 01:00 -10.07719 36.75072 33965 ft 475 kts 220°
2026-04-17 01:00 -10.12970 36.71005 33969 ft 475 kts 220°
2026-04-17 01:01 -10.18226 36.66932 33967 ft 475 kts 220°
2026-04-17 01:01 -10.23484 36.62856 33967 ft 476 kts 220°
2026-04-17 01:02 -10.28740 36.58779 33969 ft 476 kts 220°
2026-04-17 01:02 -10.34003 36.54695 33970 ft 476 kts 220°
2026-04-17 01:03 -10.39275 36.50603 33982 ft 477 kts 220°
2026-04-17 01:03 -10.44557 36.46500 33982 ft 478 kts 220°
2026-04-17 01:04 -10.49847 36.42390 33981 ft 479 kts 220°
2026-04-17 01:04 -10.55141 36.38275 33980 ft 479 kts 220°
2026-04-17 01:05 -10.60429 36.34163 33976 ft 479 kts 220°
2026-04-17 01:05 -10.65715 36.30051 33994 ft 478 kts 220°
2026-04-17 01:06 -10.70956 36.25972 33982 ft 477 kts 220°
2026-04-17 01:06 -10.76255 36.21846 33979 ft 476 kts 220°
2026-04-17 01:07 -10.81463 36.17788 33977 ft 474 kts 220°
2026-04-17 01:07 -10.86696 36.13709 33974 ft 474 kts 220°
2026-04-17 01:08 -10.91923 36.09633 33979 ft 473 kts 220°
2026-04-17 01:08 -10.97141 36.05563 33980 ft 473 kts 220°
2026-04-17 01:09 -11.02359 36.01490 33982 ft 473 kts 220°
2026-04-17 01:09 -11.07574 35.97418 33973 ft 472 kts 220°
2026-04-17 01:10 -11.12781 35.93350 33970 ft 472 kts 220°
2026-04-17 01:10 -11.17988 35.89281 33975 ft 472 kts 220°
2026-04-17 01:11 -11.23191 35.85212 33970 ft 472 kts 220°
2026-04-17 01:11 -11.28387 35.81148 33970 ft 471 kts 220°
2026-04-17 01:12 -11.33589 35.77076 33973 ft 472 kts 220°
2026-04-17 01:12 -11.38795 35.72999 33968 ft 472 kts 220°
2026-04-17 01:13 -11.44004 35.68918 33971 ft 473 kts 220°
2026-04-17 01:13 -11.49233 35.64820 33972 ft 473 kts 220°
2026-04-17 01:14 -11.54445 35.60732 33967 ft 474 kts 220°
2026-04-17 01:14 -11.59673 35.56630 33968 ft 474 kts 220°
2026-04-17 01:15 -11.64885 35.52503 33969 ft 474 kts 221°
2026-04-17 01:15 -11.70053 35.48363 33970 ft 474 kts 221°
2026-04-17 01:16 -11.75242 35.44202 33970 ft 474 kts 220°
2026-04-17 01:16 -11.80431 35.40046 33973 ft 474 kts 220°
2026-04-17 01:17 -11.85624 35.35888 33976 ft 474 kts 220°
2026-04-17 01:17 -11.90811 35.31734 33971 ft 474 kts 220°
2026-04-17 01:18 -11.95997 35.27577 33975 ft 474 kts 220°
2026-04-17 01:18 -12.01181 35.23421 33969 ft 473 kts 220°
2026-04-17 01:19 -12.06360 35.19266 33972 ft 473 kts 220°
2026-04-17 01:19 -12.11534 35.15112 33974 ft 473 kts 220°
2026-04-17 01:20 -12.16707 35.10958 33972 ft 473 kts 220°
2026-04-17 01:20 -12.21875 35.06805 33975 ft 471 kts 220°
2026-04-17 01:21 -12.26964 35.02717 33653 ft 460 kts 220°
2026-04-17 01:21 -12.29473 35.00698 33306 ft 458 kts 220°
2026-04-17 01:21 -12.31974 34.98686 32927 ft 457 kts 220°
2026-04-17 01:22 -12.34473 34.96675 32584 ft 456 kts 220°
2026-04-17 01:22 -12.36960 34.94672 32280 ft 454 kts 220°
2026-04-17 01:22 -12.39399 34.92709 31989 ft 451 kts 220°
2026-04-17 01:22 -12.41860 34.90727 31694 ft 449 kts 220°
2026-04-17 01:23 -12.44300 34.88762 31502 ft 444 kts 220°
2026-04-17 01:23 -12.46713 34.86818 31254 ft 441 kts 220°
2026-04-17 01:23 -12.49126 34.84873 30821 ft 442 kts 220°
2026-04-17 01:23 -12.51546 34.82921 30410 ft 443 kts 220°
2026-04-17 01:24 -12.53964 34.80971 30093 ft 441 kts 220°
2026-04-17 01:24 -12.56366 34.79034 29798 ft 439 kts 220°
2026-04-17 01:24 -12.58756 34.77107 29477 ft 436 kts 220°
2026-04-17 01:24 -12.61135 34.75199 29179 ft 433 kts 219°
2026-04-17 01:25 -12.63532 34.73333 28848 ft 432 kts 218°
2026-04-17 01:25 -12.65930 34.71494 28500 ft 430 kts 218°
2026-04-17 01:25 -12.68324 34.69666 28182 ft 428 kts 218°
2026-04-17 01:25 -12.70706 34.67844 27881 ft 426 kts 218°
2026-04-17 01:26 -12.73074 34.66027 27572 ft 424 kts 218°
2026-04-17 01:26 -12.75430 34.64215 27282 ft 422 kts 218°
2026-04-17 01:26 -12.77773 34.62410 26990 ft 421 kts 218°
2026-04-17 01:26 -12.80109 34.60608 26697 ft 419 kts 218°
2026-04-17 01:27 -12.82432 34.58816 26412 ft 417 kts 218°
2026-04-17 01:27 -12.84744 34.57030 26133 ft 416 kts 218°
2026-04-17 01:27 -12.87052 34.55248 25844 ft 414 kts 218°
2026-04-17 01:27 -12.89342 34.53480 25424 ft 411 kts 218°
2026-04-17 01:28 -12.91621 34.51719 24983 ft 409 kts 218°
2026-04-17 01:28 -12.93885 34.49970 24536 ft 407 kts 218°
2026-04-17 01:28 -12.96140 34.48227 24071 ft 405 kts 218°
2026-04-17 01:28 -12.98390 34.46488 23637 ft 404 kts 218°
2026-04-17 01:29 -13.00630 34.44756 23115 ft 403 kts 218°
2026-04-17 01:29 -13.05079 34.41314 22188 ft 398 kts 218°
2026-04-17 01:29 -13.07281 34.39609 21738 ft 395 kts 218°
2026-04-17 01:30 -13.09470 34.37915 21300 ft 393 kts 218°
2026-04-17 01:30 -13.11647 34.36231 20857 ft 391 kts 218°
2026-04-17 01:30 -13.13762 34.34492 20426 ft 388 kts 223°
2026-04-17 01:30 -13.15644 34.32520 19992 ft 386 kts 229°
2026-04-17 01:31 -13.17315 34.30378 19574 ft 384 kts 236°
2026-04-17 01:31 -13.18803 34.28109 19129 ft 383 kts 237°
2026-04-17 01:31 -13.20266 34.25830 18678 ft 382 kts 237°
2026-04-17 01:31 -13.21704 34.23584 18258 ft 381 kts 237°
2026-04-17 01:32 -13.23160 34.21313 17774 ft 380 kts 237°
2026-04-17 01:32 -13.24613 34.19055 17315 ft 378 kts 236°
2026-04-17 01:32 -13.26060 34.16812 16879 ft 376 kts 236°
2026-04-17 01:32 -13.27500 34.14582 16444 ft 374 kts 236°
2026-04-17 01:33 -13.28933 34.12367 16011 ft 371 kts 236°
2026-04-17 01:33 -13.30357 34.10165 15603 ft 369 kts 236°
2026-04-17 01:33 -13.31775 34.07973 15190 ft 367 kts 236°
2026-04-17 01:33 -13.33182 34.05798 14761 ft 365 kts 236°
2026-04-17 01:34 -13.34584 34.03630 14332 ft 363 kts 236°
2026-04-17 01:34 -13.35997 34.01443 13907 ft 362 kts 236°
2026-04-17 01:34 -13.37367 33.99323 13444 ft 361 kts 236°
2026-04-17 01:34 -13.38748 33.97185 13019 ft 358 kts 236°
2026-04-17 01:35 -13.40123 33.95058 12600 ft 356 kts 236°
2026-04-17 01:35 -13.41482 33.92953 12189 ft 353 kts 236°
2026-04-17 01:35 -13.42834 33.90858 11780 ft 350 kts 236°
2026-04-17 01:35 -13.44171 33.88786 11372 ft 347 kts 236°
2026-04-17 01:36 -13.45502 33.86724 10995 ft 345 kts 236°
2026-04-17 01:36 -13.46816 33.84688 10694 ft 339 kts 236°
2026-04-17 01:36 -13.48109 33.82711 10549 ft 328 kts 234°
2026-04-17 01:36 -13.49454 33.80866 10388 ft 317 kts 232°
2026-04-17 01:37 -13.50791 33.79108 10264 ft 307 kts 232°
2026-04-17 01:37 -13.52082 33.77412 10131 ft 296 kts 232°
2026-04-17 01:37 -13.53321 33.75770 9992 ft 286 kts 232°
2026-04-17 01:37 -13.54535 33.74151 9653 ft 287 kts 232°
2026-04-17 01:38 -13.55747 33.72527 9337 ft 287 kts 232°
2026-04-17 01:38 -13.56568 33.71425 9115 ft 287 kts 232°
2026-04-17 01:38 -13.57762 33.69823 8661 ft 283 kts 232°
2026-04-17 01:38 -13.59020 33.68304 8328 ft 279 kts 221°
2026-04-17 01:39 -13.60503 33.67021 7994 ft 282 kts 217°
2026-04-17 01:39 -13.62065 33.65751 7643 ft 290 kts 217°
2026-04-17 01:39 -13.63693 33.64592 7350 ft 274 kts 200°
2026-04-17 01:39 -13.65441 33.64280 7220 ft 243 kts 167°
2026-04-17 01:40 -13.66977 33.64831 7005 ft 224 kts 147°
2026-04-17 01:40 -13.68259 33.65687 6761 ft 218 kts 140°
2026-04-17 01:40 -13.69381 33.66673 6484 ft 213 kts 133°
2026-04-17 01:40 -13.70443 33.67740 6201 ft 208 kts 129°
2026-04-17 01:41 -13.71382 33.68845 5937 ft 203 kts 127°
2026-04-17 01:41 -13.72278 33.69949 5685 ft 204 kts 127°
2026-04-17 01:41 -13.73176 33.71047 5426 ft 190 kts 127°
2026-04-17 01:41 -13.73991 33.72045 5182 ft 174 kts 127°
2026-04-17 01:42 -13.74732 33.72953 4965 ft 163 kts 126°
2026-04-17 01:42 -13.75451 33.73836 4782 ft 160 kts 127°
2026-04-17 01:42 -13.76166 33.74711 4568 ft 160 kts 127°
2026-04-17 01:42 -13.76888 33.75594 4339 ft 162 kts 129°
2026-04-17 01:43 -13.77615 33.76484 4159 ft 163 kts 129°
2026-04-17 01:43 -13.78337 33.77373 4032 ft 153 kts 130°
2026-04-17 01:43 -13.78900 33.78058 4029 ft 93 kts 130°
2026-04-17 01:43 -13.79171 33.78389 4028 ft 38 kts 130°
2026-04-17 01:44 -13.79321 33.78569 4029 ft 18 kts 129°
2026-04-17 01:44 -13.79297 33.78666 4030 ft 14 kts 44°
2026-04-17 01:44 -13.79215 33.78710 4030 ft 14 kts 347°
2026-04-17 01:44 -13.79149 33.78652 4030 ft 12 kts 310°
2026-04-17 01:45 -13.79093 33.78583 4031 ft 13 kts 308°
2026-04-17 01:45 -13.79034 33.78510 4030 ft 14 kts 310°
2026-04-17 01:45 -13.78969 33.78432 4030 ft 15 kts 309°
2026-04-17 01:45 -13.78905 33.78351 4031 ft 15 kts 310°
2026-04-17 01:46 -13.78840 33.78272 4029 ft 15 kts 310°
2026-04-17 01:46 -13.78773 33.78190 4032 ft 15 kts 310°
2026-04-17 01:46 -13.78704 33.78105 4032 ft 16 kts 310°
2026-04-17 01:46 -13.78635 33.78020 4032 ft 16 kts 310°
2026-04-17 01:47 -13.78568 33.77939 4032 ft 12 kts 310°
2026-04-17 01:47 -13.78514 33.77873 4033 ft 12 kts 309°
2026-04-17 01:47 -13.78459 33.77803 4033 ft 13 kts 309°
2026-04-17 01:47 -13.78403 33.77733 4033 ft 13 kts 310°
2026-04-17 01:48 -13.78342 33.77662 4032 ft 14 kts 311°
2026-04-17 01:48 -13.78260 33.77632 4032 ft 14 kts 31°
2026-04-17 01:48 -13.78228 33.77691 4032 ft 5 kts 119°
2026-04-17 01:48 -13.78242 33.77704 4032 ft 3 kts 135°
2026-04-17 01:49 -13.78258 33.77724 4032 ft 4 kts 129°
2026-04-17 01:49 -13.78261 33.77727 4033 ft 0 kts 129°